Year,Month,Day,Hour,Minute,Value (Times are PST for temperature in C)
2009,08,03,00,00,16.40
2009,08,03,00,01,16.40
2009,08,03,00,02,16.40
2009,08,03,00,03,16.40
2009,08,03,00,04,16.40
2009,08,03,00,05,16.40
2009,08,03,00,06,16.40
2009,08,03,00,07,16.40
2009,08,03,00,08,16.40
2009,08,03,00,09,16.40
2009,08,03,00,10,16.40
2009,08,03,00,11,16.40
2009,08,03,00,12,16.40
2009,08,03,00,13,16.50
2009,08,03,00,14,16.60
2009,08,03,00,15,16.60
2009,08,03,00,16,16.60
2009,08,03,00,17,16.60
2009,08,03,00,18,16.60
2009,08,03,00,19,16.60
2009,08,03,00,20,16.60
2009,08,03,00,21,16.60
2009,08,03,00,22,16.60
2009,08,03,00,23,16.60
2009,08,03,00,24,16.60
2009,08,03,00,25,16.60
2009,08,03,00,26,16.60
2009,08,03,00,27,16.60
2009,08,03,00,28,16.60
2009,08,03,00,29,16.60
2009,08,03,00,30,16.70
2009,08,03,00,31,16.70
2009,08,03,00,32,16.70
2009,08,03,00,33,16.70
2009,08,03,00,34,16.70
2009,08,03,00,35,16.70
2009,08,03,00,36,16.60
2009,08,03,00,37,16.60
2009,08,03,00,38,16.60
2009,08,03,00,39,16.50
2009,08,03,00,40,16.40
2009,08,03,00,41,16.40
2009,08,03,00,42,16.40
2009,08,03,00,43,16.40
2009,08,03,00,44,16.40
2009,08,03,00,45,16.30
2009,08,03,00,46,16.30
2009,08,03,00,47,16.20
2009,08,03,00,48,16.10
2009,08,03,00,49,16.10
2009,08,03,00,50,16.00
2009,08,03,00,51,15.90
2009,08,03,00,52,15.80
2009,08,03,00,53,15.80
2009,08,03,00,54,15.70
2009,08,03,00,55,15.70
2009,08,03,00,56,15.60
2009,08,03,00,57,15.60
2009,08,03,00,58,15.50
2009,08,03,00,59,15.50
2009,08,03,01,00,15.50
2009,08,03,01,01,15.40
2009,08,03,01,02,15.40
2009,08,03,01,03,15.40
2009,08,03,01,04,15.40
2009,08,03,01,05,15.30
2009,08,03,01,06,15.30
2009,08,03,01,07,15.30
2009,08,03,01,08,15.30
2009,08,03,01,09,15.30
2009,08,03,01,10,15.30
2009,08,03,01,11,15.30
2009,08,03,01,12,15.20
2009,08,03,01,13,15.20
2009,08,03,01,14,15.10
2009,08,03,01,15,15.10
2009,08,03,01,16,15.10
2009,08,03,01,17,15.00
2009,08,03,01,18,14.90
2009,08,03,01,19,14.90
2009,08,03,01,20,14.80
2009,08,03,01,21,14.80
2009,08,03,01,22,14.70
2009,08,03,01,23,14.60
2009,08,03,01,24,14.60
2009,08,03,01,25,14.50
2009,08,03,01,26,14.40
2009,08,03,01,27,14.30
2009,08,03,01,28,14.20
2009,08,03,01,29,14.20
2009,08,03,01,30,14.10
2009,08,03,01,31,14.00
2009,08,03,01,32,13.90
2009,08,03,01,33,13.70
2009,08,03,01,34,13.60
2009,08,03,01,35,13.50
2009,08,03,01,36,13.40
2009,08,03,01,37,13.30
2009,08,03,01,38,13.20
2009,08,03,01,39,13.10
2009,08,03,01,40,13.10
2009,08,03,01,41,13.00
2009,08,03,01,42,12.90
2009,08,03,01,43,12.80
2009,08,03,01,44,12.80
2009,08,03,01,45,12.80
2009,08,03,01,46,12.70
2009,08,03,01,47,12.70
2009,08,03,01,48,12.60
2009,08,03,01,49,12.60
2009,08,03,01,50,12.60
2009,08,03,01,51,12.60
2009,08,03,01,52,12.60
2009,08,03,01,53,12.60
2009,08,03,01,54,12.50
2009,08,03,01,55,12.50
2009,08,03,01,56,12.50
2009,08,03,01,57,12.50
2009,08,03,01,58,12.50
2009,08,03,01,59,12.50
2009,08,03,02,00,12.50
2009,08,03,02,01,12.40
2009,08,03,02,02,12.40
2009,08,03,02,03,12.40
2009,08,03,02,04,12.40
2009,08,03,02,05,12.40
2009,08,03,02,06,12.40
2009,08,03,02,07,12.40
2009,08,03,02,08,12.40
2009,08,03,02,09,12.40
2009,08,03,02,10,12.40
2009,08,03,02,11,12.50
2009,08,03,02,12,12.50
2009,08,03,02,13,12.50
2009,08,03,02,14,12.50
2009,08,03,02,15,12.50
2009,08,03,02,16,12.50
2009,08,03,02,17,12.50
2009,08,03,02,18,12.60
2009,08,03,02,19,12.60
2009,08,03,02,20,12.70
2009,08,03,02,21,12.70
2009,08,03,02,22,12.80
2009,08,03,02,23,12.80
2009,08,03,02,24,12.80
2009,08,03,02,25,12.80
2009,08,03,02,26,12.80
2009,08,03,02,27,12.80
2009,08,03,02,28,12.80
2009,08,03,02,29,12.80
2009,08,03,02,30,12.80
2009,08,03,02,31,12.80
2009,08,03,02,32,12.80
2009,08,03,02,33,12.80
2009,08,03,02,34,12.80
2009,08,03,02,35,12.80
2009,08,03,02,36,12.80
2009,08,03,02,37,12.80
2009,08,03,02,38,12.80
2009,08,03,02,39,12.80
2009,08,03,02,40,12.80
2009,08,03,02,41,12.80
2009,08,03,02,42,12.80
2009,08,03,02,43,12.80
2009,08,03,02,44,12.80
2009,08,03,02,45,12.80
2009,08,03,02,46,12.80
2009,08,03,02,47,12.80
2009,08,03,02,48,12.80
2009,08,03,02,49,12.80
2009,08,03,02,50,12.80
2009,08,03,02,51,12.80
2009,08,03,02,52,12.80
2009,08,03,02,53,12.70
2009,08,03,02,54,12.70
2009,08,03,02,55,12.70
2009,08,03,02,56,12.70
2009,08,03,02,57,12.70
2009,08,03,02,58,12.70
2009,08,03,02,59,12.70
2009,08,03,03,00,12.70
2009,08,03,03,01,12.70
2009,08,03,03,02,12.70
2009,08,03,03,03,12.70
2009,08,03,03,04,12.70
2009,08,03,03,05,12.70
2009,08,03,03,06,12.80
2009,08,03,03,07,12.80
2009,08,03,03,08,12.80
2009,08,03,03,09,12.80
2009,08,03,03,10,12.80
2009,08,03,03,11,12.80
2009,08,03,03,12,12.80
2009,08,03,03,13,12.80
2009,08,03,03,14,12.80
2009,08,03,03,15,12.80
2009,08,03,03,16,12.90
2009,08,03,03,17,12.90
2009,08,03,03,18,13.00
2009,08,03,03,19,13.00
2009,08,03,03,20,13.10
2009,08,03,03,21,13.10
2009,08,03,03,22,13.10
2009,08,03,03,23,13.20
2009,08,03,03,24,13.20
2009,08,03,03,25,13.20
2009,08,03,03,26,13.30
2009,08,03,03,27,13.30
2009,08,03,03,28,13.30
2009,08,03,03,29,13.20
2009,08,03,03,30,13.20
2009,08,03,03,31,13.20
2009,08,03,03,32,13.20
2009,08,03,03,33,13.20
2009,08,03,03,34,13.20
2009,08,03,03,35,13.20
2009,08,03,03,36,13.10
2009,08,03,03,37,13.10
2009,08,03,03,38,13.10
2009,08,03,03,39,13.10
2009,08,03,03,40,13.10
2009,08,03,03,41,13.10
2009,08,03,03,42,13.10
2009,08,03,03,43,13.10
2009,08,03,03,44,13.10
2009,08,03,03,45,13.10
2009,08,03,03,46,13.10
2009,08,03,03,47,13.20
2009,08,03,03,48,13.20
2009,08,03,03,49,13.20
2009,08,03,03,50,13.20
2009,08,03,03,51,13.20
2009,08,03,03,52,13.20
2009,08,03,03,53,13.20
2009,08,03,03,54,13.30
2009,08,03,03,55,13.30
2009,08,03,03,56,13.30
2009,08,03,03,57,13.30
2009,08,03,03,58,13.30
2009,08,03,03,59,13.30
2009,08,03,04,00,13.30
2009,08,03,04,01,13.30
2009,08,03,04,02,13.30
2009,08,03,04,03,13.30
2009,08,03,04,04,13.30
2009,08,03,04,05,13.30
2009,08,03,04,06,13.30
2009,08,03,04,07,13.30
2009,08,03,04,08,13.30
2009,08,03,04,09,13.30
2009,08,03,04,10,13.30
2009,08,03,04,11,13.30
2009,08,03,04,12,13.30
2009,08,03,04,13,13.30
2009,08,03,04,14,13.30
2009,08,03,04,15,13.30
2009,08,03,04,16,13.30
2009,08,03,04,17,13.30
2009,08,03,04,18,13.30
2009,08,03,04,19,13.30
2009,08,03,04,20,13.30
2009,08,03,04,21,13.30
2009,08,03,04,22,13.30
2009,08,03,04,23,13.30
2009,08,03,04,24,13.30
2009,08,03,04,25,13.30
2009,08,03,04,26,13.30
2009,08,03,04,27,13.30
2009,08,03,04,28,13.30
2009,08,03,04,29,13.30
2009,08,03,04,30,13.30
2009,08,03,04,31,13.30
2009,08,03,04,32,13.30
2009,08,03,04,33,13.30
2009,08,03,04,34,13.30
2009,08,03,04,35,13.30
2009,08,03,04,36,13.30
2009,08,03,04,37,13.30
2009,08,03,04,38,13.30
2009,08,03,04,39,13.30
2009,08,03,04,40,13.30
2009,08,03,04,41,13.30
2009,08,03,04,42,13.40
2009,08,03,04,43,13.40
2009,08,03,04,44,13.40
2009,08,03,04,45,13.50
2009,08,03,04,46,13.50
2009,08,03,04,47,13.50
2009,08,03,04,48,13.50
2009,08,03,04,49,13.60
2009,08,03,04,50,13.60
2009,08,03,04,51,13.70
2009,08,03,04,52,13.70
2009,08,03,04,53,13.70
2009,08,03,04,54,13.70
2009,08,03,04,55,13.70
2009,08,03,04,56,13.70
2009,08,03,04,57,13.80
2009,08,03,04,58,13.80
2009,08,03,04,59,13.80
2009,08,03,05,00,13.80
2009,08,03,05,01,13.80
2009,08,03,05,02,13.90
2009,08,03,05,03,13.90
2009,08,03,05,04,13.90
2009,08,03,05,05,13.90
2009,08,03,05,06,13.90
2009,08,03,05,07,13.90
2009,08,03,05,08,13.90
2009,08,03,05,09,13.90
2009,08,03,05,10,13.90
2009,08,03,05,11,13.90
2009,08,03,05,12,13.90
2009,08,03,05,13,13.80
2009,08,03,05,14,13.80
2009,08,03,05,15,13.80
2009,08,03,05,16,13.70
2009,08,03,05,17,13.70
2009,08,03,05,18,13.70
2009,08,03,05,19,13.70
2009,08,03,05,20,13.70
2009,08,03,05,21,13.70
2009,08,03,05,22,13.70
2009,08,03,05,23,13.70
2009,08,03,05,24,13.60
2009,08,03,05,25,13.60
2009,08,03,05,26,13.60
2009,08,03,05,27,13.60
2009,08,03,05,28,13.50
2009,08,03,05,29,13.50
2009,08,03,05,30,13.50
2009,08,03,05,31,13.40
2009,08,03,05,32,13.40
2009,08,03,05,33,13.40
2009,08,03,05,34,13.30
2009,08,03,05,35,13.30
2009,08,03,05,36,13.30
2009,08,03,05,37,13.30
2009,08,03,05,38,13.20
2009,08,03,05,39,13.10
2009,08,03,05,40,13.00
2009,08,03,05,41,12.80
2009,08,03,05,42,12.80
2009,08,03,05,43,12.70
2009,08,03,05,44,12.60
2009,08,03,05,45,12.60
2009,08,03,05,46,12.50
2009,08,03,05,47,12.50
2009,08,03,05,48,12.40
2009,08,03,05,49,12.30
2009,08,03,05,50,12.30
2009,08,03,05,51,12.20
2009,08,03,05,52,12.10
2009,08,03,05,53,12.00
2009,08,03,05,54,12.00
2009,08,03,05,55,11.90
2009,08,03,05,56,11.80
2009,08,03,05,57,11.80
2009,08,03,05,58,11.80
2009,08,03,05,59,11.70
2009,08,03,06,00,11.70
2009,08,03,06,01,11.60
2009,08,03,06,02,11.60
2009,08,03,06,03,11.50
2009,08,03,06,04,11.40
2009,08,03,06,05,11.40
2009,08,03,06,06,11.40
2009,08,03,06,07,11.30
2009,08,03,06,08,11.30
2009,08,03,06,09,11.20
2009,08,03,06,10,11.20
2009,08,03,06,11,11.20
2009,08,03,06,12,11.20
2009,08,03,06,13,11.20
2009,08,03,06,14,11.20
2009,08,03,06,15,11.10
2009,08,03,06,16,11.10
2009,08,03,06,17,11.10
2009,08,03,06,18,11.10
2009,08,03,06,19,11.10
2009,08,03,06,20,11.10
2009,08,03,06,21,11.00
2009,08,03,06,22,10.90
2009,08,03,06,23,10.90
2009,08,03,06,24,10.90
2009,08,03,06,25,10.90
2009,08,03,06,26,10.90
2009,08,03,06,27,10.90
2009,08,03,06,28,10.90
2009,08,03,06,29,10.90
2009,08,03,06,30,10.90
2009,08,03,06,31,10.90
2009,08,03,06,32,10.90
2009,08,03,06,33,10.90
2009,08,03,06,34,10.90
2009,08,03,06,35,11.00
2009,08,03,06,36,11.00
2009,08,03,06,37,10.90
2009,08,03,06,38,10.90
2009,08,03,06,39,11.00
2009,08,03,06,40,10.90
2009,08,03,06,41,10.90
2009,08,03,06,42,11.00
2009,08,03,06,43,11.10
2009,08,03,06,44,11.10
2009,08,03,06,45,11.10
2009,08,03,06,46,11.10
2009,08,03,06,47,11.10
2009,08,03,06,48,11.10
2009,08,03,06,49,11.20
2009,08,03,06,50,11.20
2009,08,03,06,51,11.20
2009,08,03,06,52,11.20
2009,08,03,06,53,11.30
2009,08,03,06,54,11.30
2009,08,03,06,55,11.40
2009,08,03,06,56,11.40
2009,08,03,06,57,11.40
2009,08,03,06,58,11.40
2009,08,03,06,59,11.50
2009,08,03,07,00,11.60
2009,08,03,07,01,11.60
2009,08,03,07,02,11.60
2009,08,03,07,03,11.60
2009,08,03,07,04,11.60
2009,08,03,07,05,11.60
2009,08,03,07,06,11.60
2009,08,03,07,07,11.60
2009,08,03,07,08,11.70
2009,08,03,07,09,11.70
2009,08,03,07,10,11.80
2009,08,03,07,11,11.80
2009,08,03,07,12,11.90
2009,08,03,07,13,11.90
2009,08,03,07,14,12.00
2009,08,03,07,15,12.10
2009,08,03,07,16,12.10
2009,08,03,07,17,12.20
2009,08,03,07,18,12.20
2009,08,03,07,19,12.30
2009,08,03,07,20,12.30
2009,08,03,07,21,12.40
2009,08,03,07,22,12.50
2009,08,03,07,23,12.50
2009,08,03,07,24,12.60
2009,08,03,07,25,12.60
2009,08,03,07,26,12.60
2009,08,03,07,27,12.70
2009,08,03,07,28,12.70
2009,08,03,07,29,12.80
2009,08,03,07,30,12.80
2009,08,03,07,31,12.80
2009,08,03,07,32,12.80
2009,08,03,07,33,12.90
2009,08,03,07,34,12.90
2009,08,03,07,35,13.00
2009,08,03,07,36,13.00
2009,08,03,07,37,13.10
2009,08,03,07,38,13.10
2009,08,03,07,39,13.20
2009,08,03,07,40,13.30
2009,08,03,07,41,13.30
2009,08,03,07,42,13.30
2009,08,03,07,43,13.40
2009,08,03,07,44,13.50
2009,08,03,07,45,13.50
2009,08,03,07,46,13.60
2009,08,03,07,47,13.60
2009,08,03,07,48,13.60
2009,08,03,07,49,13.60
2009,08,03,07,50,13.60
2009,08,03,07,51,13.60
2009,08,03,07,52,13.60
2009,08,03,07,53,13.60
2009,08,03,07,54,13.60
2009,08,03,07,55,13.60
2009,08,03,07,56,13.60
2009,08,03,07,57,13.60
2009,08,03,07,58,13.60
2009,08,03,07,59,13.60
2009,08,03,08,00,13.60
2009,08,03,08,01,13.60
2009,08,03,08,02,13.60
2009,08,03,08,03,13.60
2009,08,03,08,04,13.60
2009,08,03,08,05,13.60
2009,08,03,08,06,13.70
2009,08,03,08,07,13.70
2009,08,03,08,08,13.70
2009,08,03,08,09,13.70
2009,08,03,08,10,13.70
2009,08,03,08,11,13.80
2009,08,03,08,12,13.80
2009,08,03,08,13,13.90
2009,08,03,08,14,13.90
2009,08,03,08,15,14.00
2009,08,03,08,16,14.10
2009,08,03,08,17,14.20
2009,08,03,08,18,14.30
2009,08,03,08,19,14.30
2009,08,03,08,20,14.40
2009,08,03,08,21,14.50
2009,08,03,08,22,14.50
2009,08,03,08,23,14.60
2009,08,03,08,24,14.60
2009,08,03,08,25,14.70
2009,08,03,08,26,14.80
2009,08,03,08,27,14.80
2009,08,03,08,28,14.80
2009,08,03,08,29,14.90
2009,08,03,08,30,14.90
2009,08,03,08,31,15.00
2009,08,03,08,32,15.10
2009,08,03,08,33,15.20
2009,08,03,08,34,15.30
2009,08,03,08,35,15.40
2009,08,03,08,36,15.50
2009,08,03,08,37,15.50
2009,08,03,08,38,15.60
2009,08,03,08,39,15.60
2009,08,03,08,40,15.60
2009,08,03,08,41,15.60
2009,08,03,08,42,15.70
2009,08,03,08,43,15.70
2009,08,03,08,44,15.70
2009,08,03,08,45,15.70
2009,08,03,08,46,15.70
2009,08,03,08,47,15.80
2009,08,03,08,48,15.80
2009,08,03,08,49,15.80
2009,08,03,08,50,15.80
2009,08,03,08,51,15.70
2009,08,03,08,52,15.60
2009,08,03,08,53,15.40
2009,08,03,08,54,15.30
2009,08,03,08,55,15.30
2009,08,03,08,56,15.10
2009,08,03,08,57,14.90
2009,08,03,08,58,14.80
2009,08,03,08,59,14.70
2009,08,03,09,00,14.70
2009,08,03,09,01,14.60
2009,08,03,09,02,14.60
2009,08,03,09,03,14.50
2009,08,03,09,04,14.40
2009,08,03,09,05,14.20
2009,08,03,09,06,14.30
2009,08,03,09,07,14.30
2009,08,03,09,08,14.30
2009,08,03,09,09,14.30
2009,08,03,09,10,14.30
2009,08,03,09,11,14.40
2009,08,03,09,12,14.50
2009,08,03,09,13,14.60
2009,08,03,09,14,14.70
2009,08,03,09,15,14.80
2009,08,03,09,16,14.80
2009,08,03,09,17,14.90
2009,08,03,09,18,14.90
2009,08,03,09,19,14.90
2009,08,03,09,20,14.90
2009,08,03,09,21,14.90
2009,08,03,09,22,15.00
2009,08,03,09,23,15.00
2009,08,03,09,24,15.00
2009,08,03,09,25,15.10
2009,08,03,09,26,15.10
2009,08,03,09,27,15.20
2009,08,03,09,28,15.30
2009,08,03,09,29,15.30
2009,08,03,09,30,15.30
2009,08,03,09,31,15.30
2009,08,03,09,32,15.30
2009,08,03,09,33,15.30
2009,08,03,09,34,15.30
2009,08,03,09,35,15.40
2009,08,03,09,36,15.50
2009,08,03,09,37,15.60
2009,08,03,09,38,15.70
2009,08,03,09,39,15.80
2009,08,03,09,40,15.90
2009,08,03,09,41,16.00
2009,08,03,09,42,16.10
2009,08,03,09,43,16.10
2009,08,03,09,44,16.20
2009,08,03,09,45,16.30
2009,08,03,09,46,16.40
2009,08,03,09,47,16.40
2009,08,03,09,48,16.40
2009,08,03,09,49,16.40
2009,08,03,09,50,16.50
2009,08,03,09,51,16.60
2009,08,03,09,52,16.60
2009,08,03,09,53,16.60
2009,08,03,09,54,16.70
2009,08,03,09,55,16.70
2009,08,03,09,56,16.80
2009,08,03,09,57,16.90
2009,08,03,09,58,17.00
2009,08,03,09,59,17.10
2009,08,03,10,00,17.20
2009,08,03,10,01,17.20
2009,08,03,10,02,17.30
2009,08,03,10,03,17.30
2009,08,03,10,04,17.30
2009,08,03,10,05,17.40
2009,08,03,10,06,17.50
2009,08,03,10,07,17.50
2009,08,03,10,08,17.60
2009,08,03,10,09,17.70
2009,08,03,10,10,17.60
2009,08,03,10,11,17.60
2009,08,03,10,12,17.60
2009,08,03,10,13,17.60
2009,08,03,10,14,17.70
2009,08,03,10,15,17.80
2009,08,03,10,16,17.90
2009,08,03,10,17,17.90
2009,08,03,10,18,17.90
2009,08,03,10,19,17.90
2009,08,03,10,20,17.90
2009,08,03,10,21,17.90
2009,08,03,10,22,17.90
2009,08,03,10,23,17.90
2009,08,03,10,24,17.90
2009,08,03,10,25,18.00
2009,08,03,10,26,18.10
2009,08,03,10,27,18.10
2009,08,03,10,28,18.10
2009,08,03,10,29,18.10
2009,08,03,10,30,18.20
2009,08,03,10,31,18.20
2009,08,03,10,32,18.30
2009,08,03,10,33,18.40
2009,08,03,10,34,18.50
2009,08,03,10,35,18.50
2009,08,03,10,36,18.30
2009,08,03,10,37,18.20
2009,08,03,10,38,18.20
2009,08,03,10,39,18.00
2009,08,03,10,40,17.80
2009,08,03,10,41,17.60
2009,08,03,10,42,17.60
2009,08,03,10,43,17.70
2009,08,03,10,44,17.70
2009,08,03,10,45,17.80
2009,08,03,10,46,17.90
2009,08,03,10,47,18.00
2009,08,03,10,48,18.10
2009,08,03,10,49,18.10
2009,08,03,10,50,18.10
2009,08,03,10,51,18.00
2009,08,03,10,52,17.90
2009,08,03,10,53,17.90
2009,08,03,10,54,17.80
2009,08,03,10,55,17.70
2009,08,03,10,56,17.70
2009,08,03,10,57,17.70
2009,08,03,10,58,17.60
2009,08,03,10,59,17.60
2009,08,03,11,00,17.60
2009,08,03,11,01,17.50
2009,08,03,11,02,17.40
2009,08,03,11,03,17.40
2009,08,03,11,04,17.50
2009,08,03,11,05,17.50
2009,08,03,11,06,17.60
2009,08,03,11,07,17.60
2009,08,03,11,08,17.60
2009,08,03,11,09,17.60
2009,08,03,11,10,17.50
2009,08,03,11,11,17.50
2009,08,03,11,12,17.60
2009,08,03,11,13,17.70
2009,08,03,11,14,17.60
2009,08,03,11,15,17.70
2009,08,03,11,16,17.70
2009,08,03,11,17,17.80
2009,08,03,11,18,17.90
2009,08,03,11,19,17.90
2009,08,03,11,20,17.90
2009,08,03,11,21,17.80
2009,08,03,11,22,17.80
2009,08,03,11,23,17.80
2009,08,03,11,24,17.90
2009,08,03,11,25,17.90
2009,08,03,11,26,18.10
2009,08,03,11,27,18.10
2009,08,03,11,28,18.20
2009,08,03,11,29,18.20
2009,08,03,11,30,18.40
2009,08,03,11,31,18.50
2009,08,03,11,32,18.60
2009,08,03,11,33,18.70
2009,08,03,11,34,18.70
2009,08,03,11,35,18.90
2009,08,03,11,36,18.90
2009,08,03,11,37,18.90
2009,08,03,11,38,18.90
2009,08,03,11,39,18.90
2009,08,03,11,40,18.90
2009,08,03,11,41,18.80
2009,08,03,11,42,18.60
2009,08,03,11,43,18.50
2009,08,03,11,44,18.30
2009,08,03,11,45,18.20
2009,08,03,11,46,18.20
2009,08,03,11,47,18.20
2009,08,03,11,48,18.40
2009,08,03,11,49,18.40
2009,08,03,11,50,18.20
2009,08,03,11,51,18.20
2009,08,03,11,52,18.20
2009,08,03,11,53,18.20
2009,08,03,11,54,18.10
2009,08,03,11,55,17.90
2009,08,03,11,56,17.90
2009,08,03,11,57,17.90
2009,08,03,11,58,18.00
2009,08,03,11,59,18.10
2009,08,03,12,00,18.20
2009,08,03,12,01,18.30
2009,08,03,12,02,18.40
2009,08,03,12,03,18.50
2009,08,03,12,04,18.50
2009,08,03,12,05,18.40
2009,08,03,12,06,18.10
2009,08,03,12,07,18.00
2009,08,03,12,08,17.90
2009,08,03,12,09,18.00
2009,08,03,12,10,18.10
2009,08,03,12,11,18.20
2009,08,03,12,12,18.30
2009,08,03,12,13,18.40
2009,08,03,12,14,18.50
2009,08,03,12,15,18.60
2009,08,03,12,16,18.60
2009,08,03,12,17,18.60
2009,08,03,12,18,18.70
2009,08,03,12,19,18.70
2009,08,03,12,20,18.80
2009,08,03,12,21,18.60
2009,08,03,12,22,18.30
2009,08,03,12,23,18.00
2009,08,03,12,24,17.90
2009,08,03,12,25,17.80
2009,08,03,12,26,17.80
2009,08,03,12,27,17.90
2009,08,03,12,28,18.00
2009,08,03,12,29,18.10
2009,08,03,12,30,18.30
2009,08,03,12,31,18.30
2009,08,03,12,32,18.40
2009,08,03,12,33,18.40
2009,08,03,12,34,18.30
2009,08,03,12,35,18.20
2009,08,03,12,36,18.20
2009,08,03,12,37,18.30
2009,08,03,12,38,18.40
2009,08,03,12,39,18.50
2009,08,03,12,40,18.60
2009,08,03,12,41,18.60
2009,08,03,12,42,18.70
2009,08,03,12,43,18.70
2009,08,03,12,44,18.70
2009,08,03,12,45,18.80
2009,08,03,12,46,18.80
2009,08,03,12,47,18.90
2009,08,03,12,48,18.90
2009,08,03,12,49,18.90
2009,08,03,12,50,18.80
2009,08,03,12,51,18.80
2009,08,03,12,52,18.90
2009,08,03,12,53,18.90
2009,08,03,12,54,18.90
2009,08,03,12,55,18.90
2009,08,03,12,56,18.90
2009,08,03,12,57,18.90
2009,08,03,12,58,18.80
2009,08,03,12,59,18.60
2009,08,03,13,00,18.40
2009,08,03,13,01,18.20
2009,08,03,13,02,18.10
2009,08,03,13,03,17.90
2009,08,03,13,04,17.90
2009,08,03,13,05,17.80
2009,08,03,13,06,17.80
2009,08,03,13,07,17.90
2009,08,03,13,08,17.90
2009,08,03,13,09,17.90
2009,08,03,13,10,18.00
2009,08,03,13,11,18.10
2009,08,03,13,12,18.20
2009,08,03,13,13,18.20
2009,08,03,13,14,18.20
2009,08,03,13,15,18.20
2009,08,03,13,16,18.40
2009,08,03,13,17,18.50
2009,08,03,13,18,18.60
2009,08,03,13,19,18.80
2009,08,03,13,20,19.00
2009,08,03,13,21,19.10
2009,08,03,13,22,19.10
2009,08,03,13,23,19.20
2009,08,03,13,24,19.30
2009,08,03,13,25,19.40
2009,08,03,13,26,19.60
2009,08,03,13,27,19.80
2009,08,03,13,28,19.90
2009,08,03,13,29,19.90
2009,08,03,13,30,19.90
2009,08,03,13,31,19.90
2009,08,03,13,32,19.90
2009,08,03,13,33,20.10
2009,08,03,13,34,20.10
2009,08,03,13,35,20.20
2009,08,03,13,36,20.40
2009,08,03,13,37,20.50
2009,08,03,13,38,20.70
2009,08,03,13,39,20.80
2009,08,03,13,40,21.00
2009,08,03,13,41,21.10
2009,08,03,13,42,21.30
2009,08,03,13,43,21.40
2009,08,03,13,44,21.40
2009,08,03,13,45,21.50
2009,08,03,13,46,21.60
2009,08,03,13,47,21.50
2009,08,03,13,48,21.30
2009,08,03,13,49,21.30
2009,08,03,13,50,21.20
2009,08,03,13,51,21.20
2009,08,03,13,52,21.20
2009,08,03,13,53,21.10
2009,08,03,13,54,21.10
2009,08,03,13,55,21.00
2009,08,03,13,56,20.90
2009,08,03,13,57,20.90
2009,08,03,13,58,20.80
2009,08,03,13,59,20.80
2009,08,03,14,00,20.80
2009,08,03,14,01,20.80
2009,08,03,14,02,20.80
2009,08,03,14,03,20.80
2009,08,03,14,04,20.90
2009,08,03,14,05,20.90
2009,08,03,14,06,21.00
2009,08,03,14,07,21.00
2009,08,03,14,08,21.00
2009,08,03,14,09,21.20
2009,08,03,14,10,21.30
2009,08,03,14,11,21.30
2009,08,03,14,12,21.30
2009,08,03,14,13,21.40
2009,08,03,14,14,21.40
2009,08,03,14,15,21.30
2009,08,03,14,16,21.30
2009,08,03,14,17,21.40
2009,08,03,14,18,21.50
2009,08,03,14,19,21.60
2009,08,03,14,20,21.60
2009,08,03,14,21,21.70
2009,08,03,14,22,21.70
2009,08,03,14,23,21.80
2009,08,03,14,24,21.90
2009,08,03,14,25,21.90
2009,08,03,14,26,21.90
2009,08,03,14,27,21.90
2009,08,03,14,28,21.90
2009,08,03,14,29,22.00
2009,08,03,14,30,22.00
2009,08,03,14,31,22.10
2009,08,03,14,32,22.10
2009,08,03,14,33,22.10
2009,08,03,14,34,22.10
2009,08,03,14,35,22.10
2009,08,03,14,36,22.10
2009,08,03,14,37,22.10
2009,08,03,14,38,22.10
2009,08,03,14,39,22.10
2009,08,03,14,40,22.10
2009,08,03,14,41,22.00
2009,08,03,14,42,22.00
2009,08,03,14,43,22.10
2009,08,03,14,44,22.10
2009,08,03,14,45,22.20
2009,08,03,14,46,22.20
2009,08,03,14,47,22.20
2009,08,03,14,48,22.10
2009,08,03,14,49,22.00
2009,08,03,14,50,21.90
2009,08,03,14,51,21.90
2009,08,03,14,52,21.90
2009,08,03,14,53,22.00
2009,08,03,14,54,22.00
2009,08,03,14,55,22.00
2009,08,03,14,56,22.00
2009,08,03,14,57,22.00
2009,08,03,14,58,21.90
2009,08,03,14,59,21.70
2009,08,03,15,00,21.70
2009,08,03,15,01,21.80
2009,08,03,15,02,21.90
2009,08,03,15,03,21.90
2009,08,03,15,04,22.00
2009,08,03,15,05,22.00
2009,08,03,15,06,22.10
2009,08,03,15,07,22.20
2009,08,03,15,08,22.30
2009,08,03,15,09,22.30
2009,08,03,15,10,22.40
2009,08,03,15,11,22.50
2009,08,03,15,12,22.40
2009,08,03,15,13,22.40
2009,08,03,15,14,22.60
2009,08,03,15,15,22.60
2009,08,03,15,16,22.60
2009,08,03,15,17,22.70
2009,08,03,15,18,22.60
2009,08,03,15,19,22.60
2009,08,03,15,20,22.50
2009,08,03,15,21,22.40
2009,08,03,15,22,22.40
2009,08,03,15,23,22.30
2009,08,03,15,24,22.30
2009,08,03,15,25,22.20
2009,08,03,15,26,22.00
2009,08,03,15,27,21.90
2009,08,03,15,28,21.80
2009,08,03,15,29,21.80
2009,08,03,15,30,21.70
2009,08,03,15,31,21.70
2009,08,03,15,32,21.80
2009,08,03,15,33,21.80
2009,08,03,15,34,21.90
2009,08,03,15,35,22.00
2009,08,03,15,36,22.00
2009,08,03,15,37,22.10
2009,08,03,15,38,22.20
2009,08,03,15,39,22.30
2009,08,03,15,40,22.40
2009,08,03,15,41,22.50
2009,08,03,15,42,22.60
2009,08,03,15,43,22.70
2009,08,03,15,44,22.60
2009,08,03,15,45,22.60
2009,08,03,15,46,22.60
2009,08,03,15,47,22.70
2009,08,03,15,48,22.70
2009,08,03,15,49,22.60
2009,08,03,15,50,22.60
2009,08,03,15,51,22.60
2009,08,03,15,52,22.60
2009,08,03,15,53,22.40
2009,08,03,15,54,22.30
2009,08,03,15,55,22.30
2009,08,03,15,56,22.30
2009,08,03,15,57,22.30
2009,08,03,15,58,22.20
2009,08,03,15,59,22.30
2009,08,03,16,00,22.40
2009,08,03,16,01,22.50
2009,08,03,16,02,22.50
2009,08,03,16,03,22.50
2009,08,03,16,04,22.50
2009,08,03,16,05,22.50
2009,08,03,16,06,22.50
2009,08,03,16,07,22.60
2009,08,03,16,08,22.60
2009,08,03,16,09,22.50
2009,08,03,16,10,22.50
2009,08,03,16,11,22.50
2009,08,03,16,12,22.50
2009,08,03,16,13,22.50
2009,08,03,16,14,22.60
2009,08,03,16,15,22.60
2009,08,03,16,16,22.60
2009,08,03,16,17,22.60
2009,08,03,16,18,22.60
2009,08,03,16,19,22.70
2009,08,03,16,20,22.70
2009,08,03,16,21,22.80
2009,08,03,16,22,22.80
2009,08,03,16,23,22.90
2009,08,03,16,24,22.90
2009,08,03,16,25,22.90
2009,08,03,16,26,22.90
2009,08,03,16,27,22.70
2009,08,03,16,28,22.50
2009,08,03,16,29,22.40
2009,08,03,16,30,22.30
2009,08,03,16,31,22.30
2009,08,03,16,32,22.30
2009,08,03,16,33,22.30
2009,08,03,16,34,22.30
2009,08,03,16,35,22.30
2009,08,03,16,36,22.30
2009,08,03,16,37,22.20
2009,08,03,16,38,22.20
2009,08,03,16,39,22.20
2009,08,03,16,40,22.30
2009,08,03,16,41,22.40
2009,08,03,16,42,22.50
2009,08,03,16,43,22.50
2009,08,03,16,44,22.50
2009,08,03,16,45,22.50
2009,08,03,16,46,22.50
2009,08,03,16,47,22.50
2009,08,03,16,48,22.60
2009,08,03,16,49,22.70
2009,08,03,16,50,22.70
2009,08,03,16,51,22.70
2009,08,03,16,52,22.70
2009,08,03,16,53,22.70
2009,08,03,16,54,22.70
2009,08,03,16,55,22.70
2009,08,03,16,56,22.70
2009,08,03,16,57,22.70
2009,08,03,16,58,22.70
2009,08,03,16,59,22.70
2009,08,03,17,00,22.70
2009,08,03,17,01,22.70
2009,08,03,17,02,22.70
2009,08,03,17,03,22.70
2009,08,03,17,04,22.70
2009,08,03,17,05,22.70
2009,08,03,17,06,22.60
2009,08,03,17,07,22.60
2009,08,03,17,08,22.60
2009,08,03,17,09,22.60
2009,08,03,17,10,22.60
2009,08,03,17,11,22.60
2009,08,03,17,12,22.60
2009,08,03,17,13,22.70
2009,08,03,17,14,22.70
2009,08,03,17,15,22.70
2009,08,03,17,16,22.80
2009,08,03,17,17,22.90
2009,08,03,17,18,22.90
2009,08,03,17,19,22.90